* Astronomy

Members Login
Username 
 
Password 
    Remember Me  
Post Info TOPIC: Asteroid 2009 HT2


L

Posts: 131433
Date:
Asteroid 2009 HT2
Permalink  
 


Orbital elements:
2009 HT2 Earth MOID = 0.0514 AU
Epoch 2009 June 18.0 TT = JDT 2455000.5 MPC
M 13.68235 (2000.0) P Q
n 0.22568642 Peri. 178.69080 -0.88204981 +0.46534311
a 2.6717702 Node 29.40307 -0.43363169 -0.74054150
e 0.6048506 Incl. 8.64349 -0.18425982 -0.48482376
P 4.37 H 26.5 G 0.15 U 8

MPEC 2009 - H21


__________________
Page 1 of 1  sorted by
 
Quick Reply

Please log in to post quick replies.



Create your own FREE Forum
Report Abuse
Powered by ActiveBoard